Temperature
22 22 22 21 21 20 20 20 20 19 19 18 19 19 18 17 17 17 17 17 17 17 17 17 18 18 17 17 17 17 16 16 16 16 15 15 15 14 14 14 14 14 15
22 22 22 20 20 20 19 19 19 19 19 19 19 18 18 18 17 17 17 17 17 17 17 18 18 18 17 18 18 17 16 16 16 16 15 14 14 14 14 14 14 14 14
21 21 21 20 19 18 18 18 19 19 19 18 18 18 17 17 17 17 17 17 17 17 17 18 18 18 18 18 18 18 17 16 16 16 16 15 14 14 14 14 14 14 14
21 20 20 20 19 18 17 17 18 18 18 17 17 17 17 16 16 16 17 17 17 17 17 17 17 17 17 18 18 18 17 17 16 16 16 16 16 15 14 13 13 14 14
22 21 20 19 19 18 17 16 16 17 16 16 16 16 16 15 16 16 15 15 16 17 17 17 17 17 17 18 17 17 17 17 17 17 16 16 16 16 15 13 13 13 13
22 21 19 19 18 18 17 16 16 16 16 15 15 15 15 15 15 16 14 15 15 16 17 16 16 17 17 17 17 17 16 17 17 17 17 16 16 16 16 15 13 13 13
21 21 20 19 19 18 18 17 16 16 15 15 15 15 15 15 15 16 14 14 14 15 16 16 16 16 16 16 16 16 16 16 16 17 16 16 16 16 16 16 14 13 12
22 22 21 20 19 18 18 17 16 16 16 15 15 15 15 16 16 15 14 14 14 15 16 16 16 16 16 16 16 16 16 16 16 16 16 16 16 16 16 16 16 14 13
22 22 21 20 19 18 18 17 17 17 16 15 15 15 16 16 15 15 14 14 15 15 15 15 15 16 16 16 16 16 16 15 15 15 15 16 16 16 16 16 16 16 15
22 21 21 20 19 18 18 17 17 17 16 16 16 15 16 16 15 16 16 16 16 16 16 16 16 16 15 15 16 16 16 15 15 15 15 15 16 16 16 16 16 16 16
23 22 21 20 19 18 17 17 17 16 16 16 16 16 15 16 16 16 17 17 17 17 16 15 16 16 16 16 16 16 16 16 16 15 15 15 15 15 15 15 16 16 16
23 22 21 20 18 18 17 16 16 16 16 16 16 16 16 15 16 16 16 16 15 16 15 15 15 16 16 16 16 16 15 16 16 16 16 15 15 15 15 15 15 15 15
23 22 21 20 19 18 17 17 16 16 16 16 16 16 16 16 16 16 15 15 16 16 14 15 15 15 15 15 15 16 15 15 16 16 15 15 14 15 15 15 15 15 15
23 22 21 20 19 19 19 18 17 17 17 16 16 16 16 16 16 17 17 16 17 16 16 16 15 15 14 15 15 15 15 15 15 15 15 15 15 14 14 15 15 15 15
22 22 21 21 20 19 19 19 18 17 17 16 15 16 16 16 16 16 16 15 15 15 15 14 14 14 14 15 15 15 15 15 15 15 15 15 15 14 14 15 15 15 15
22 22 22 21 21 20 20 19 18 18 17 17 16 16 15 15 15 15 15 15 14 14 14 14 14 14 14 14 15 15 15 15 15 15 15 15 15 15 15 15 15 15 15
22 21 21 20 20 20 20 19 19 18 17 18 18 17 16 15 15 15 15 15 14 14 14 14 14 14 14 14 14 14 14 15 15 15 15 15 15 15 15 15 15 15 15
22 21 20 20 19 19 19 18 18 18 18 18 17 17 16 16 15 15 15 14 14 14 14 14 14 14 14 14 14 14 14 14 14 15 15 15 15 15 15 16 16 15 15
21 20 19 19 18 18 18 19 19 18 18 18 17 17 16 16 16 16 15 15 15 14 14 14 13 13 14 14 14 14 14 15 15 14 14 15 14 14 15 15 15 15 15
19 19 18 17 16 16 16 17 17 17 17 17 17 17 16 16 16 15 15 14 14 14 13 13 12 13 13 13 13 14 14 14 14 14 14 15 14 14 14 14 14 14 14
18 18 17 16 16 15 15 15 15 15 15 15 16 16 16 15 14 14 13 13 13 13 13 12 12 12 12 13 13 13 13 14 14 14 13 13 13 13 13 13 13 14 14
17 16 16 16 15 15 15 14 14 13 13 13 14 14 14 13 12 13 12 12 12 13 12 12 12 12 12 12 12 12 13 13 13 13 13 13 13 13 13 13 12 12 13
16 15 15 15 14 14 14 14 13 13 12 12 12 12 12 12 12 12 12 12 12 12 12 12 12 12 12 12 12 12 12 13 12 12 12 12 12 12 12 12 12 11 12
15 15 14 14 14 14 14 13 13 13 12 12 11 11 11 11 11 12 12 12 12 12 12 12 12 12 12 12 12 12 12 12 12 12 12 12 12 12 12 12 11 11 11
15 15 15 14 14 14 14 13 13 12 12 11 11 11 11 11 11 11 12 12 12 12 12 11 12 12 12 12 12 12 12 12 12 12 12 12 12 12 11 11 10 10 11
16 15 15 14 14 14 14 13 12 12 12 11 11 11 10 10 11 11 11 11 11 11 11 11 11 12 12 11 12 11 11 11 11 11 11 11 11 11 11 11 10 10 10
Wind_Speed
6 5 5 5 7 8 8 8 8 7 6 3 3 5 5 3 3 4 7 8 10 12 8 7 7 7 7 9 10 6 5 2 3 5 4 5 5 5 4 4 4 6 10
5 5 6 5 5 5 4 3 5 8 8 6 3 3 3 3 3 4 5 9 8 10 11 11 9 9 8 9 9 5 4 3 4 5 4 2 3 3 3 3 5 5 9
9 7 5 4 5 4 4 3 4 5 5 4 3 3 3 2 2 3 4 6 10 9 11 9 9 10 10 9 8 7 6 5 3 4 5 5 4 2 2 2 3 6 6
9 8 7 6 5 4 4 5 5 4 4 6 5 5 4 3 3 3 3 3 7 11 10 10 8 8 8 9 9 9 5 6 6 3 1 3 5 4 3 2 2 3 6
9 9 9 8 7 6 5 5 5 4 4 5 5 5 4 3 4 4 5 4 1 5 6 8 8 7 6 5 5 7 6 5 7 5 4 2 2 3 4 3 2 2 2
8 8 8 8 7 8 7 6 6 6 6 6 5 6 7 8 8 8 5 3 2 1 2 4 3 6 6 4 4 5 7 7 6 5 5 5 4 4 4 4 4 3 1
9 9 10 9 9 9 9 8 7 6 6 5 5 6 8 9 11 11 8 5 4 2 2 2 3 6 6 5 4 5 7 7 7 7 5 5 5 5 5 5 5 3 1
10 11 12 11 10 10 9 8 8 7 7 6 6 7 7 6 5 8 9 7 4 4 5 2 2 5 6 5 7 8 7 6 8 9 7 5 6 5 5 6 7 4 1
11 11 12 11 11 10 10 9 9 8 8 8 7 6 6 7 8 9 7 7 7 6 9 6 3 6 6 9 9 7 8 7 6 7 7 5 5 6 6 9 11 8 5
9 9 10 12 12 12 11 9 10 9 8 8 7 7 7 9 11 11 9 6 6 6 7 5 5 7 9 11 9 6 7 8 7 6 7 6 5 5 6 8 9 6 5
10 9 9 11 10 10 9 9 9 7 6 7 8 8 8 8 8 8 8 7 4 4 6 4 5 8 9 7 7 7 8 8 7 8 8 8 7 8 7 7 7 6 5
10 9 9 9 9 10 10 10 9 8 8 8 7 8 9 9 9 8 7 7 7 6 6 8 9 12 9 8 7 8 9 10 10 9 8 8 8 9 8 7 8 7 5
10 9 9 10 10 10 10 10 9 9 8 8 7 7 9 10 10 10 9 8 6 5 6 5 9 10 10 10 10 8 8 9 9 9 9 10 10 8 8 7 8 7 5
13 11 10 11 11 11 11 11 10 9 9 8 8 7 7 6 7 8 7 6 3 2 6 5 5 7 10 11 9 8 9 9 8 8 10 10 10 10 10 10 9 9 8
10 12 13 12 11 11 11 11 11 10 10 9 9 9 7 6 6 5 5 4 4 6 7 6 6 6 6 8 9 9 9 8 7 7 8 10 12 14 13 10 9 9 9
12 14 13 12 11 12 12 11 10 10 11 11 12 9 8 8 8 8 7 6 6 6 6 5 5 5 5 8 12 10 8 8 7 8 8 8 11 12 14 15 15 15 14
11 10 7 6 7 8 9 11 11 9 13 15 14 11 10 10 10 10 7 5 4 2 3 4 4 4 5 5 9 11 8 8 8 8 7 5 4 5 8 13 16 17 19
6 5 5 4 2 1 6 9 8 10 14 13 12 12 12 13 12 10 10 7 4 3 4 4 4 2 4 5 8 13 9 7 7 7 7 5 4 5 7 8 8 8 9
7 6 6 6 6 6 5 3 5 6 8 8 10 11 11 10 10 11 11 7 5 5 4 4 4 4 5 5 4 6 5 6 6 6 6 8 7 8 9 7 7 7 7
8 8 7 6 7 6 7 9 7 4 2 5 5 7 10 10 8 8 6 4 4 5 4 5 5 6 5 5 6 7 4 4 5 4 5 8 10 13 14 10 8 9 10
8 7 8 7 6 6 9 9 9 7 4 4 5 5 4 5 9 9 5 2 5 4 4 4 4 5 5 6 8 11 7 6 5 5 5 6 10 12 11 9 7 8 7
7 7 7 6 6 7 9 8 7 4 4 5 5 5 8 8 8 7 6 6 7 4 4 3 3 3 2 5 6 11 9 7 6 5 4 4 6 8 9 8 8 8 6
6 5 6 5 4 4 7 7 4 4 6 5 3 3 6 7 6 7 9 7 6 5 4 3 4 3 2 3 5 8 9 10 6 4 5 6 6 6 6 7 9 8 6
6 6 6 5 3 2 2 3 3 4 5 3 3 4 5 6 5 4 6 6 5 3 4 4 4 3 3 3 3 4 5 6 5 4 4 5 3 2 3 4 4 4 5
5 6 6 6 6 5 5 4 3 4 3 4 4 3 3 4 4 2 1 3 4 4 4 4 4 4 5 5 8 8 7 5 6 6 3 2 2 2 1 2 3 4 5
6 6 6 6 6 6 6 5 4 4 4 3 2 1 2 2 3 4 4 8 5 4 5 3 3 3 3 7 12 11 10 11 11 4 2 3 4 5 5 5 4 4 4
Wind_Direction
129 108 62 80 140 161 180 185 173 158 139 146 150 153 171 181 224 219 192 193 175 183 143 153 153 151 150 153 136 118 120 108 118 102 70 35 37 59 72 87 92 90 93
128 97 83 86 118 143 167 194 173 153 161 163 161 126 155 189 205 203 178 183 177 170 148 151 155 153 154 139 121 114 129 137 180 129 115 76 15 13 32 78 103 100 99
149 144 128 116 114 133 161 172 182 166 156 137 158 129 148 194 150 149 174 162 145 140 136 145 146 154 158 152 152 151 168 146 193 182 141 150 186 167 37 39 84 110 100
149 156 146 143 146 148 143 149 172 186 177 166 184 180 175 199 174 165 150 118 143 139 148 146 141 148 156 166 176 168 168 149 164 198 135 122 153 147 136 67 40 83 108
167 171 163 162 163 163 179 188 176 190 215 201 198 179 146 115 107 107 92 77 38 121 149 147 145 153 146 152 179 173 169 164 171 173 145 122 118 136 133 152 157 80 81
194 184 168 163 166 174 183 184 182 202 199 197 192 163 153 135 124 107 94 101 185 57 61 91 146 155 146 157 186 204 194 194 182 187 169 160 166 179 151 147 156 136 126
189 183 175 176 173 179 183 178 179 186 179 179 183 167 169 161 153 140 135 147 189 163 80 64 194 201 179 163 166 198 214 202 188 195 201 185 192 163 142 136 141 119 135
194 191 187 180 180 181 181 173 168 172 169 176 189 191 181 147 132 129 140 159 178 159 143 224 253 224 180 176 195 195 209 196 192 194 198 196 202 178 152 149 145 121 134
198 197 188 182 180 175 180 178 172 175 172 175 176 186 170 137 129 124 142 156 160 170 152 167 230 250 217 197 194 195 205 197 200 205 191 191 199 187 170 163 167 152 158
201 197 185 183 182 181 185 183 182 183 183 179 179 177 175 159 158 155 158 155 155 155 130 126 191 216 222 200 185 203 206 200 207 216 212 201 186 187 177 173 179 158 138
202 187 187 183 178 178 182 190 193 186 186 198 189 176 183 177 174 178 174 164 167 161 134 137 259 246 237 225 198 202 198 201 209 218 211 211 178 185 190 178 180 164 136
200 183 181 174 173 178 182 188 190 176 187 198 197 174 177 183 187 198 200 186 179 168 184 169 229 258 252 240 217 203 194 205 209 214 203 214 191 186 192 184 186 170 147
189 177 173 178 183 185 185 190 186 179 179 183 192 181 176 180 190 187 204 215 196 163 228 187 217 234 236 230 214 201 203 208 209 200 196 213 202 185 184 191 187 179 151
181 176 187 195 193 192 188 187 185 180 171 171 178 184 181 177 183 182 195 214 211 267 273 268 248 239 237 234 214 196 210 212 209 200 200 210 208 198 189 192 183 168 152
175 185 196 204 197 195 191 190 188 179 173 178 191 201 191 184 193 204 205 220 240 243 255 252 242 245 240 231 216 200 194 204 205 206 205 210 211 207 192 187 172 153 143
195 199 203 203 200 198 197 194 195 187 179 188 201 200 190 188 196 215 216 210 225 234 231 231 237 255 254 240 217 192 184 198 207 218 222 218 219 213 197 187 177 169 158
206 214 212 213 221 217 202 200 203 180 191 199 200 198 189 191 197 199 202 222 218 201 237 247 239 257 270 256 226 205 186 195 208 218 205 178 185 180 192 190 181 179 175
132 121 118 107 81 161 200 211 193 196 205 198 196 198 192 197 193 182 185 188 184 207 234 247 262 272 274 264 225 212 201 185 196 198 174 168 156 127 117 130 156 169 177
126 114 102 85 53 35 35 107 168 195 210 194 186 191 193 200 191 182 174 166 179 204 217 227 238 256 268 258 201 163 159 150 173 188 181 160 166 181 154 135 144 166 181
107 109 104 90 67 37 50 65 67 94 208 217 186 189 189 185 163 140 134 151 191 223 223 235 227 243 257 234 200 148 148 157 161 165 194 180 176 176 170 175 176 190 197
110 103 90 76 62 75 79 69 68 67 59 81 111 115 119 127 124 130 154 186 255 242 247 230 221 232 239 225 200 166 171 170 164 176 190 196 181 162 159 164 182 196 188
116 108 97 86 74 85 89 81 76 77 81 81 96 120 117 119 138 162 196 201 233 232 243 198 225 241 248 252 228 184 180 164 168 193 193 199 178 151 143 147 164 168 161
134 131 124 115 104 112 116 119 155 150 120 111 127 140 130 130 155 195 196 195 195 182 205 206 219 233 230 255 236 198 180 175 175 188 188 189 201 184 171 171 172 167 172
154 158 144 150 197 205 173 158 167 140 114 112 144 165 158 156 180 200 187 169 162 179 196 207 217 219 214 221 215 189 178 163 148 137 136 135 134 162 180 179 187 192 200
171 168 176 196 233 248 237 230 186 144 99 88 109 123 163 164 142 119 96 156 166 175 180 207 210 201 221 218 200 193 189 184 153 124 99 99 129 172 218 253 218 209 210
178 187 206 220 248 265 228 204 174 140 120 91 74 77 114 109 107 121 81 52 55 88 113 141 170 183 233 223 202 195 172 160 155 137 150 179 194 207 218 224 221 213 213
Height
1488 1488 1487 1487 1488 1491 1494 1497 1499 1499 1501 1503 1505 1506 1509 1512 1515 1516 1518 1522 1524 1527 1530 1533 1535 1538 1540 1543 1546 1548 1552 1553 1553 1555 1556 1558 1559 1560 1561 1561 1560 1559 1558
1487 1487 1486 1487 1488 1490 1494 1496 1497 1498 1499 1501 1503 1505 1508 1508 1509 1512 1515 1519 1521 1525 1527 1529 1533 1536 1539 1541 1544 1547 1549 1551 1553 1554 1555 1558 1561 1561 1562 1562 1562 1561 1560
1485 1487 1487 1487 1488 1490 1493 1494 1496 1497 1498 1499 1501 1502 1503 1503 1506 1509 1512 1515 1518 1521 1524 1527 1531 1534 1537 1540 1545 1546 1547 1549 1551 1553 1554 1556 1558 1560 1562 1562 1562 1561 1561
1483 1485 1486 1486 1487 1489 1491 1492 1493 1495 1497 1498 1497 1499 1499 1500 1503 1506 1509 1512 1515 1519 1522 1525 1528 1532 1535 1538 1541 1543 1545 1547 1549 1551 1552 1553 1554 1557 1560 1562 1562 1561 1562
1482 1484 1485 1486 1487 1487 1489 1490 1491 1492 1493 1493 1493 1495 1495 1497 1500 1503 1505 1509 1513 1516 1519 1522 1527 1530 1533 1536 1538 1541 1543 1545 1546 1548 1549 1551 1553 1554 1555 1558 1560 1560 1561
1482 1483 1484 1486 1486 1486 1487 1488 1489 1490 1490 1490 1490 1492 1493 1496 1498 1500 1502 1507 1511 1514 1516 1519 1525 1528 1531 1534 1537 1540 1542 1543 1544 1546 1546 1547 1549 1551 1552 1554 1556 1558 1560
1480 1481 1482 1483 1484 1485 1486 1487 1487 1488 1488 1488 1488 1490 1492 1494 1497 1499 1502 1506 1510 1513 1514 1519 1524 1527 1530 1533 1535 1537 1538 1540 1542 1543 1544 1545 1547 1549 1550 1551 1553 1556 1559
1478 1478 1479 1481 1482 1483 1484 1485 1486 1486 1486 1487 1488 1489 1491 1494 1496 1497 1501 1505 1509 1511 1515 1519 1523 1526 1529 1530 1532 1533 1534 1536 1538 1540 1542 1543 1544 1545 1547 1548 1550 1553 1556
1474 1475 1476 1478 1480 1481 1482 1483 1484 1485 1485 1486 1487 1489 1491 1494 1496 1498 1502 1506 1509 1512 1516 1519 1522 1523 1524 1526 1526 1529 1530 1532 1533 1536 1538 1539 1540 1542 1544 1545 1547 1550 1551
1471 1472 1474 1475 1477 1479 1481 1482 1483 1484 1486 1486 1487 1488 1492 1494 1497 1499 1501 1505 1508 1511 1514 1516 1519 1520 1521 1523 1523 1524 1526 1526 1528 1531 1533 1535 1536 1538 1540 1542 1544 1546 1549
1468 1469 1471 1473 1476 1477 1478 1480 1481 1484 1485 1486 1486 1487 1489 1493 1495 1497 1499 1502 1505 1507 1509 1513 1515 1516 1516 1517 1517 1519 1520 1521 1523 1526 1528 1530 1532 1534 1536 1538 1540 1542 1545
1465 1466 1468 1471 1473 1474 1475 1477 1479 1481 1483 1484 1484 1485 1486 1489 1491 1493 1494 1498 1501 1503 1505 1507 1510 1511 1511 1511 1511 1513 1514 1515 1518 1521 1523 1525 1526 1528 1531 1534 1536 1538 1541
1461 1463 1465 1468 1469 1471 1472 1474 1476 1478 1480 1481 1482 1483 1484 1487 1488 1489 1492 1496 1499 1499 1501 1502 1505 1507 1509 1509 1508 1508 1510 1509 1512 1514 1516 1519 1521 1522 1526 1529 1531 1534 1538
1455 1459 1462 1464 1466 1467 1469 1471 1473 1474 1476 1478 1480 1482 1484 1486 1487 1489 1492 1495 1496 1496 1497 1498 1500 1501 1503 1504 1504 1504 1506 1506 1508 1510 1512 1515 1516 1517 1520 1523 1526 1529 1534
1453 1456 1458 1459 1461 1463 1465 1467 1469 1471 1473 1475 1477 1480 1482 1485 1487 1487 1489 1492 1493 1493 1494 1495 1496 1498 1498 1499 1499 1500 1502 1505 1506 1507 1508 1511 1513 1513 1515 1518 1522 1525 1528
1451 1452 1454 1456 1457 1460 1461 1464 1466 1467 1469 1471 1473 1476 1479 1480 1482 1484 1486 1488 1490 1491 1493 1493 1493 1494 1494 1494 1494 1497 1499 1502 1503 1503 1505 1507 1509 1510 1512 1514 1518 1521 1523
1449 1451 1453 1454 1456 1457 1459 1460 1463 1465 1465 1465 1468 1471 1473 1475 1477 1480 1482 1484 1487 1489 1490 1490 1490 1491 1491 1491 1491 1493 1494 1497 1499 1501 1502 1504 1505 1507 1510 1511 1513 1516 1519
1449 1451 1452 1452 1453 1454 1455 1456 1459 1460 1461 1460 1463 1466 1469 1470 1472 1475 1477 1480 1482 1484 1485 1485 1486 1486 1487 1488 1489 1490 1490 1492 1496 1498 1500 1501 1503 1504 1505 1507 1509 1512 1516
1449 1450 1451 1451 1451 1451 1451 1451 1452 1454 1456 1457 1459 1462 1465 1467 1469 1470 1471 1475 1478 1480 1480 1480 1481 1482 1483 1484 1485 1487 1488 1488 1491 1494 1496 1496 1498 1501 1501 1504 1506 1510 1512
1449 1450 1450 1451 1450 1449 1449 1449 1449 1450 1451 1453 1455 1457 1460 1462 1464 1468 1470 1473 1475 1476 1476 1477 1478 1479 1481 1482 1483 1484 1485 1486 1487 1489 1492 1493 1495 1497 1498 1500 1503 1506 1508
1448 1449 1450 1449 1448 1448 1447 1448 1449 1449 1449 1450 1451 1453 1456 1458 1461 1465 1469 1472 1475 1474 1472 1472 1475 1477 1479 1480 1480 1481 1483 1484 1485 1486 1488 1490 1491 1493 1494 1496 1498 1501 1505
1447 1448 1448 1448 1448 1448 1448 1448 1448 1448 1449 1449 1450 1452 1453 1454 1458 1462 1466 1468 1470 1470 1470 1470 1472 1473 1475 1477 1478 1479 1482 1483 1484 1486 1487 1487 1488 1489 1491 1493 1495 1497 1500
1446 1447 1447 1448 1448 1449 1450 1450 1449 1449 1449 1449 1450 1451 1451 1451 1454 1457 1460 1464 1465 1465 1467 1467 1468 1470 1473 1475 1476 1478 1480 1481 1482 1483 1483 1485 1485 1486 1488 1489 1491 1493 1495
1445 1446 1446 1447 1449 1450 1450 1451 1450 1450 1449 1449 1449 1450 1451 1452 1453 1455 1457 1459 1460 1461 1462 1464 1466 1467 1470 1472 1474 1475 1477 1479 1479 1480 1481 1482 1482 1483 1484 1485 1486 1487 1489
1445 1445 1446 1447 1448 1450 1450 1451 1451 1450 1449 1448 1448 1449 1450 1451 1453 1454 1456 1458 1459 1460 1461 1462 1463 1465 1467 1469 1470 1472 1474 1475 1476 1477 1477 1478 1480 1480 1481 1482 1483 1484 1485
1445 1446 1447 1447 1448 1449 1449 1449 1449 1449 1448 1447 1448 1448 1449 1450 1450 1453 1454 1455 1456 1457 1459 1460 1462 1462 1464 1465 1466 1468 1469 1471 1472 1472 1473 1475 1476 1477 1479 1480 1480 1480 1480